STARLINK-2338, 47793

Orbit data source: Space-Track

STARLINK-2338, 47793 is a payload satellite owned by SpaceX/Seattle (US) in LEO that was launched on Thu, 11 Mar 2021 UTC via an FALCON 9 launch vehicle from the Air Force Eastern Test Range (AFETR). Payload-class satellites include a variety of spacecraft equipped with specific instruments for various scientific and technological missions. These include communications satellites like Starlink; space stations such as the ISS; scientific satellites like the Hubble; Earth observation satellites from companies like Planet Labs, Umbra, and HawkEye 360; GPS; miniature CubeSats for education and research; and military/defense satellites.

Loading next visibility...
Identifier
47793, 2021-018G
Orbit
LEO
Country
Flag of USUS
Related business
Manufacturer
SpaceX/Seattle
Mission
Operational Commercial Communications
Bus & Motor
STARLINK, Unknown motor
Mass
260 kg wet, ~248 kg dry
Launch date (UTC)
2021-03-11 (5 years ago)
Launch vehicle
FALCON 9
Launch site
Air Force Eastern Test Range (AFETR)
Object type
Payload
Rocket body
Debris
Shape & HBR
Box + 1 Pan, 10.1 m
Radar Cross Section
13.562 m², Large (>1 m²)

Expand to show TLE details & history
Last TLE update: 10 hours ago

TLE from 10 hours ago
0 STARLINK-2338
1 47793U 21018G   26120.25002315  .00034232  00000-0  11981-2 0  9997
2 47793  53.1449 359.1555 0001832  92.4868 354.9134 15.29220985  5830
Epoch: 2026-04-30T06:00Z
TLE epoch observation values (Epoch: 2026-04-30T06:00:02.000Z)
Latitude
53.21836°
Longitude
136.61056°
Altitude
483.441 km
Speed
7.631 km/s
True Right ascension
05h 39m 16s
True Declination
53° 02' 48"
Sunlit
Object was in daylight at epoch
Visualization orbit readout
Latitude
Unknown
Longitude
Unknown
Altitude
Unknown
Speed
Unknown
Apparent Right ascension
Unknown
Apparent Declination
Unknown
Sunlit
N/A
Visualization observer readout
Local Sidereal Time
23:58:53
Azimuth
Unknown
Elevation
Unknown
Doppler factor
Unknown
Orbital elements
Apogee altitude
479.655 km
Perigee altitude
477.142 km
Semi-major axis
6,856.536 km
Eccentricity
0.00018
Inclination
53.1449°
RAAN
359.1555°
Arg. of periapsis
92.4868°
True anomaly
354.91154°
Mean anomaly
354.9134°
Eccentric anomaly
354.91247°
Mean motion
3.82284 °/min
Orbital period
94.17 mins
BSTAR
0.0011981
Loading maneuver chart data...
Computing Atmospheric mass density...
Loading historical data...
Loading historical data...
Loading historical data...
Loading historical data...
Loading historical data...
Loading historical data...
Loading historical data...

Documentation

Showing up to 5 results
|